Regional Weather Roundup
Issued by NWS

Home | Current Version | Previous Version | Graphics & Text | Print | Product List | Glossary On
Versions: 1 2 3 4 5 6 7 8 9 10 11 12 13 14 15 16 17 18 19 20 21 22 23 24 25 26 27 28 29 30 31 32 33 34 35 36 37 38 39 40 41 42 43 44 45 46 47 48 49 50
059
ASUS44 KJAN 211510
RWRMS

MISSISSIPPI HOURLY WEATHER ROUNDUP
NATIONAL WEATHER SERVICE JACKSON MS
1000 AM CDT MON JUL 21 2014

NOTE: "FAIR: INDICATES FEW OR NO CLOUDS BELOW 12,000 FEET WITH NO
SIGNIFICANT WEATHER AND/OR OBSTRUCTIONS TO VISIBILITY.

MSZ001>002-007>008-010>013-018>021-025>028-034>036-211600-
NORTHWEST MISSISSIPPI

CITY           SKY/WX    TMP DP  RH WIND       PRES   REMARKS
CLARKSDALE     FAIR      77  73  88 CALM      30.10R
CLEVELAND      FAIR      80  73  80 NE3       30.08R
GREENWOOD      SUNNY     81  69  67 NE7       30.08R
GREENVILLE     SUNNY     81  72  74 N3        30.07S
GRENADA        FAIR      81  68  65 SE5       30.10R
OLIVE BRANCH   SUNNY     77  72  83 CALM      30.11S
OXFORD         FAIR      77  66  69 E7        30.12R
TUNICA         SUNNY     79  70  73 CALM      30.10S
$$

MSZ003>006-009-014>017-022>024-029>033-037>039-211600-
NORTHEAST MISSISSIPPI

CITY           SKY/WX    TMP DP  RH WIND       PRES   REMARKS
BELMONT        FAIR      78  69  73 N6        30.09F
COLUMBUS AFB   SUNNY     80  70  70 N3        30.08S
CORINTH        FAIR      77  66  69 NW3       30.10S
GOLDN TRIANGLE SUNNY     82  70  65 N8        30.09S
STARKVILLE     FAIR      79  70  73 N5        30.08S
TUPELO         SUNNY     79  69  71 E6        30.09S
$$

MSZ040-058-211600-
CENTRAL MISSISSIPPI

CITY           SKY/WX    TMP DP  RH WIND       PRES   REMARKS
JACKSON INTL   MOSUNNY   80  71  74 CALM      30.07S
JACKSON HAWKNS SUNNY     81  70  69 VRB3      30.08R
MERIDIAN KEY   SUNNY     82  70  66 N6        30.07R
MERIDIAN NAS   SUNNY     82  68  62 NE6       30.07R
RAYMOND        FAIR      81  75  83 NW5       30.08R
VICKSBURG      MOSUNNY   81  72  74 N5        30.08R
$$

MSZ059>079-211600-
SOUTH MISSISSIPPI

CITY           SKY/WX    TMP DP  RH WIND       PRES   REMARKS
BROOKHAVEN     FAIR      81  72  74 W5        30.09S
COLUMBIA       FAIR      82  73  74 NW5       30.05S
HATTIESBURG    MOSUNNY   81  74  79 CALM      30.06S
MCCOMB         SUNNY     81  70  69 NW5       30.07S
NATCHEZ        SUNNY     79  70  73 NE5       30.08S
PINE BELT      MOSUNNY   82  73  74 W5        30.07S
$$

MSZ080>082-211600-
COASTAL MISSISSIPPI

CITY           SKY/WX    TMP DP  RH WIND       PRES   REMARKS
BAY ST LOUIS   MOSUNNY  N/A N/A N/A VRB5      30.05R
BILOXI         MOSUNNY   85  73  66 VRB6      30.04R HX  91
PASCAGOULA     MOSUNNY   84  76  76 VRB5      30.04R HX  93
GULFPORT       MOSUNNY   88  71  57 NW10G17   30.03S HX  94
$$



USA.gov is the U.S. government's official web portal to all federal, state and local government web resources and services.